Weather History for La Junta, CO

Change the Weather History Date:

Sunday, January 15, 2012

  Actual Average Record
Temperature  
Mean Temperature 38 °F 31 °F  
Max Temperature 52 °F 45 °F 71 °F (1999)
Min Temperature 24 °F 17 °F -12 °F (1972)
Degree Days  
Heating Degree Days 27 34  
Month to date heating degree days 528 514  
Since 1 July heating degree days 2783 2717  
Cooling Degree Days 0 0  
Month to date cooling degree days 0 0  
Year to date cooling degree days 0 0  
Moisture  
Dew Point 23 °F    
Average Humidity 58    
Maximum Humidity 75    
Minimum Humidity 40    
Precipitation  
Precipitation 0.00 in 0.01 in 0.24 in (1953)
Month to date precipitation 0.01 0.14  
Year to date precipitation 0.01 0.14  
Sea Level Pressure  
Sea Level Pressure 29.80 in    
Wind  
Wind Speed 16 mph (WSW)    
Max Wind Speed 23 mph    
Max Gust Speed 26 mph    
Visibility 10 miles    
Events      
T = Trace of Precipitation, MM = Missing Value Source: NWS Daily Summary

Daily Weather History Graph

Daily Weather History Graph

Search for Another Location

Airport:

Trip Planner

Search our weather history database for the weather conditions in past years. The results will help you decide how hot, cold, wet, or windy it might be!

Date:

Astronomy

Jan. 15, 2012 Rise Set
Actual Time 7:09 AM MST 4:57 PM MST
Civil Twilight 6:40 AM MST 5:26 PM MST
Nautical Twilight 6:07 AM MST 5:59 PM MST
Astronomical Twilight 5:36 AM MST 6:30 PM MST
Moon No Moon Rise 10:36 AM MST (1/15)
Length of Visible Light 10h 46m
Length of Day
9h 48m
Waning Gibbous, 57% of the Moon is Illuminated
Jan 15
Waning Gibbous
Jan 16
Last Quarter
Jan 23
New
Jan 30
First Quarter
Feb 7
Full

Hourly Weather History & Observations

Time (MST) Temp. Windchill Dew Point Humidity Pressure Visibility Wind Dir Wind Speed Gust Speed Precip Events Conditions
12:53 AM 32.0 °F 21.2 °F 19.9 °F 61% 29.98 in 10.0 mi SW 16.1 mph - N/A   Clear
1:53 AM 36.0 °F 25.6 °F 19.9 °F 52% 29.95 in 10.0 mi West 18.4 mph - N/A   Clear
2:53 AM 35.1 °F 25.5 °F 19.9 °F 54% 29.94 in 10.0 mi SW 15.0 mph - N/A   Clear
3:53 AM 36.0 °F 25.0 °F 17.1 °F 46% 29.93 in 10.0 mi SW 20.7 mph - N/A   Clear
4:53 AM 39.0 °F 28.8 °F 17.1 °F 41% 29.89 in 10.0 mi WSW 21.9 mph - N/A   Clear
5:53 AM 35.1 °F 24.1 °F 18.0 °F 50% 29.92 in 10.0 mi WSW 19.6 mph - N/A   Clear
6:53 AM 32.0 °F 28.7 °F 19.9 °F 61% 29.95 in 10.0 mi South 3.5 mph - N/A   Clear
7:53 AM 36.0 °F 26.3 °F 21.9 °F 57% 29.91 in 10.0 mi West 16.1 mph - N/A   Clear
9:53 AM 42.1 °F 34.2 °F 27.0 °F 55% 29.87 in 10.0 mi WSW 16.1 mph - N/A   Clear
11:53 AM 46.9 °F - 28.0 °F 48% 29.80 in 10.0 mi West 15.0 mph - N/A   Clear
12:53 PM 48.0 °F - 27.0 °F 44% 29.74 in 10.0 mi WSW 17.3 mph - N/A   Clear
1:53 PM 51.1 °F - 28.0 °F 41% 29.70 in 10.0 mi WSW 13.8 mph - N/A   Clear
2:53 PM 52.0 °F - 28.0 °F 40% 29.69 in 10.0 mi WSW 16.1 mph - N/A   Clear
3:53 PM 48.0 °F - 26.1 °F 42% 29.68 in 10.0 mi WSW 18.4 mph - N/A   Clear
4:53 PM 46.0 °F 39.3 °F 26.1 °F 46% 29.68 in 10.0 mi WSW 16.1 mph - N/A   Clear
5:53 PM 43.0 °F 35.7 °F 25.0 °F 49% 29.72 in 10.0 mi WSW 15.0 mph - N/A   Clear
6:53 PM 39.0 °F 34.0 °F 26.1 °F 60% 29.74 in 10.0 mi West 6.9 mph - N/A   Clear
7:53 PM 39.9 °F 30.8 °F 26.1 °F 58% 29.72 in 10.0 mi West 18.4 mph - N/A   Clear
8:53 PM 39.0 °F 31.0 °F 24.1 °F 55% 29.72 in 10.0 mi WSW 13.8 mph - N/A   Clear
9:53 PM 39.9 °F 30.8 °F 23.0 °F 51% 29.72 in 10.0 mi WSW 18.4 mph - N/A   Clear
10:53 PM 37.0 °F 27.4 °F 23.0 °F 57% 29.70 in 10.0 mi West 17.3 mph - N/A   Clear
11:53 PM 37.9 °F 28.9 °F 23.0 °F 55% 29.69 in 10.0 mi West 16.1 mph - N/A   Clear